Terminal Aerodrome Forecast
Issued by NWS Wilmington, NC

Home | Current Version | Previous Version | Text Only | Print | Product List | Glossary On
Versions: 1 2 3 4 5 6 7 8 9 10 11 12 13 14 15 16 17 18 19 20 21 22 23 24 25 26 27 28 29 30 31
928
FTUS42 KILM 242326
TAFILM
TAF
KILM 242326Z 2500/2524 VRB03KT P6SM FEW250
      TEMPO 2508/2512 3SM BR
     FM251200 04008KT P6SM FEW025 SCT050
     FM251800 07011KT P6SM VCSH BKN050=

USA.gov is the U.S. government's official web portal to all federal, state and local government web resources and services.